When you browse on this site, cookies collect data to enhance your experience and personalize the content and advertising you see.
Visit our Privacy Policy to learn more. By continuing to use the site, you agree to this use of cookies and data.
  • In Latvia
  • List of Countries
  • For 7 days
  • Water Temperature
  • Satellite Maps
  • Weather Map
  • Weather Widgets
  • user-avatar
    Login

    Hourly Weather Naftalan

    Today, 20 July, Saturday

    Time Temperature Precipitation Wind Pressure Humidity
    00:00 +28°C° 0 mm 2 mps 761 mmHg 57%
    01:00 +28°C° 0 mm 2 mps 761 mmHg 57%
    02:00 +27°C° 0 mm 2 mps 761 mmHg 56%
    03:00 +27°C° 0 mm 2 mps 761 mmHg 56%
    04:00 +28°C° 0 mm 2 mps 761 mmHg 52%
    05:00 +29°C° 0 mm 2 mps 762 mmHg 49%
    06:00 +29°C° 0 mm 3 mps 762 mmHg 45%
    07:00 +31°C° 0 mm 2 mps 762 mmHg 42%
    08:00 +34°C° 0 mm 2 mps 762 mmHg 38%
    09:00 +35°C° 0 mm 2 mps 762 mmHg 34%
    10:00 +36°C° 0 mm 3 mps 762 mmHg 32%
    11:00 +36°C° 0 mm 4 mps 762 mmHg 31%
    12:00 +37°C° 0 mm 4 mps 762 mmHg 30%
    13:00 +37°C° 0 mm 5 mps 762 mmHg 32%
    14:00 +36°C° 0 mm 5 mps 762 mmHg 34%
    15:00 +36°C° 0 mm 6 mps 761 mmHg 35%
    16:00 +35°C° 0 mm 5 mps 761 mmHg 38%
    17:00 +34°C° 0 mm 4 mps 762 mmHg 40%
    18:00 +34°C° 0 mm 4 mps 762 mmHg 42%
    19:00 +31°C° 0 mm 3 mps 762 mmHg 47%
    20:00 +30°C° 0 mm 2 mps 762 mmHg 52%
    21:00 +29°C° 0 mm 2 mps 763 mmHg 57%
    22:00 +28°C° 0 mm 2 mps 763 mmHg 56%
    23:00 +28°C° 0 mm 2 mps 763 mmHg 55%

    Tomorrow, 21 July, Sunday

    Time Temperature Precipitation Wind Pressure Humidity
    00:00 +28°C° 0 mm 2 mps 763 mmHg 54%
    01:00 +28°C° 0 mm 2 mps 763 mmHg 54%
    02:00 +28°C° 0 mm 2 mps 762 mmHg 54%
    03:00 +27°C° 0 mm 2 mps 762 mmHg 53%
    04:00 +28°C° 0 mm 2 mps 762 mmHg 50%
    05:00 +29°C° 0 mm 3 mps 762 mmHg 47%
    06:00 +30°C° 0 mm 3 mps 762 mmHg 44%
    07:00 +31°C° 0 mm 3 mps 762 mmHg 40%
    08:00 +34°C° 0 mm 3 mps 762 mmHg 37%
    09:00 +36°C° 0 mm 4 mps 762 mmHg 34%
    10:00 +36°C° 0 mm 4 mps 762 mmHg 35%
    11:00 +37°C° 0 mm 5 mps 761 mmHg 36%
    12:00 +38°C° 0 mm 6 mps 761 mmHg 36%
    13:00 +38°C° 0 mm 6 mps 760 mmHg 39%
    14:00 +36°C° 0 mm 6 mps 760 mmHg 41%
    15:00 +36°C° 0 mm 5 mps 759 mmHg 43%
    16:00 +34°C° 0 mm 5 mps 759 mmHg 48%
    17:00 +33°C° 0 mm 4 mps 759 mmHg 54%
    18:00 +32°C° 0 mm 4 mps 759 mmHg 59%
    19:00 +29°C° 0 mm 3 mps 759 mmHg 66%
    20:00 +28°C° 0 mm 2 mps 760 mmHg 73%
    21:00 +27°C° 0 mm 1 mps 760 mmHg 80%
    22:00 +27°C° 0 mm 1 mps 760 mmHg 82%
    23:00 +26°C° 0 mm 2 mps 760 mmHg 85%

    Day after tomorrow, 22 July, Monday

    Time Temperature Precipitation Wind Pressure Humidity
    00:00 +26°C° 0 mm 2 mps 759 mmHg 87%
    01:00 +26°C° 0 mm 2 mps 759 mmHg 88%
    02:00 +25°C° 0 mm 1 mps 759 mmHg 90%
    03:00 +25°C° 0 mm 1 mps 759 mmHg 91%
    04:00 +26°C° 0 mm 1 mps 759 mmHg 87%
    05:00 +26°C° 0 mm 1 mps 759 mmHg 84%
    06:00 +27°C° 0 mm 2 mps 759 mmHg 80%
    07:00 +29°C° 0 mm 2 mps 759 mmHg 71%
    08:00 +30°C° 0 mm 3 mps 759 mmHg 62%
    09:00 +33°C° 0 mm 4 mps 759 mmHg 54%
    10:00 +34°C° 0 mm 5 mps 759 mmHg 53%
    11:00 +34°C° 0 mm 6 mps 759 mmHg 53%
    12:00 +35°C° 0 mm 7 mps 759 mmHg 52%
    13:00 +34°C° 0 mm 7 mps 759 mmHg 52%
    14:00 +34°C° 0 mm 7 mps 758 mmHg 51%
    15:00 +34°C° 0 mm 8 mps 758 mmHg 51%
    16:00 +33°C° 0 mm 7 mps 758 mmHg 53%
    17:00 +33°C° 0 mm 6 mps 758 mmHg 54%
    18:00 +32°C° 0 mm 5 mps 758 mmHg 56%
    19:00 +30°C° 0 mm 4 mps 758 mmHg 60%
    20:00 +29°C° 0 mm 4 mps 759 mmHg 64%
    21:00 +28°C° 0 mm 4 mps 759 mmHg 68%
    22:00 +28°C° 0 mm 4 mps 759 mmHg 67%
    23:00 +28°C° 0 mm 4 mps 759 mmHg 66%

    23 July, Tuesday

    Time Temperature Precipitation Wind Pressure Humidity
    00:00 +28°C° 0 mm 4 mps 758 mmHg 65%
    01:00 +28°C° 0 mm 4 mps 758 mmHg 65%
    02:00 +28°C° 0 mm 4 mps 758 mmHg 64%
    03:00 +28°C° 0 mm 4 mps 758 mmHg 63%
    04:00 +28°C° 0 mm 5 mps 758 mmHg 62%
    05:00 +29°C° 0 mm 5 mps 759 mmHg 61%
    06:00 +29°C° 0 mm 5 mps 759 mmHg 60%
    07:00 +30°C° 0 mm 4 mps 759 mmHg 56%
    08:00 +32°C° 0 mm 4 mps 759 mmHg 52%
    09:00 +34°C° 0 mm 4 mps 759 mmHg 48%
    10:00 +34°C° 0 mm 4 mps 758 mmHg 46%
    11:00 +35°C° 0 mm 5 mps 758 mmHg 45%
    12:00 +35°C° 0 mm 5 mps 758 mmHg 43%
    13:00 +35°C° 0 mm 5 mps 757 mmHg 43%
    14:00 +35°C° 0 mm 6 mps 757 mmHg 44%
    15:00 +34°C° 0 mm 6 mps 756 mmHg 44%
    16:00 +34°C° 0 mm 6 mps 756 mmHg 47%
    17:00 +33°C° 0 mm 5 mps 756 mmHg 51%
    18:00 +32°C° 0 mm 5 mps 756 mmHg 54%
    19:00 +30°C° 0 mm 4 mps 756 mmHg 59%
    20:00 +29°C° 0 mm 3 mps 757 mmHg 64%
    21:00 +28°C° 0 mm 2 mps 757 mmHg 68%
    22:00 +28°C° 0 mm 2 mps 757 mmHg 67%
    23:00 +28°C° 0 mm 2 mps 757 mmHg 67%

    24 July, Wednesday

    Time Temperature Precipitation Wind Pressure Humidity
    00:00 +28°C° 0 mm 2 mps 757 mmHg 66%
    01:00 +27°C° 0 mm 2 mps 757 mmHg 65%
    02:00 +27°C° 0 mm 2 mps 757 mmHg 65%
    03:00 +27°C° 0 mm 3 mps 757 mmHg 65%
    04:00 +27°C° 0 mm 3 mps 757 mmHg 62%
    05:00 +28°C° 0 mm 3 mps 757 mmHg 60%
    06:00 +28°C° 0 mm 3 mps 757 mmHg 58%
    07:00 +30°C° 0 mm 3 mps 757 mmHg 53%
    08:00 +31°C° 0 mm 3 mps 757 mmHg 48%
    09:00 +34°C° 0 mm 3 mps 757 mmHg 42%
    10:00 +35°C° 0 mm 3 mps 757 mmHg 41%
    11:00 +35°C° 0 mm 4 mps 756 mmHg 40%
    12:00 +36°C° 0 mm 4 mps 756 mmHg 39%
    13:00 +36°C° 0 mm 4 mps 756 mmHg 39%
    14:00 +35°C° 0 mm 5 mps 755 mmHg 40%
    15:00 +35°C° 0 mm 5 mps 755 mmHg 41%
    16:00 +34°C° 0 mm 5 mps 755 mmHg 45%
    17:00 +33°C° 0 mm 5 mps 755 mmHg 48%
    18:00 +32°C° 0 mm 5 mps 755 mmHg 52%
    19:00 +30°C° 0 mm 4 mps 756 mmHg 57%
    20:00 +29°C° 0 mm 4 mps 756 mmHg 62%
    21:00 +28°C° 0 mm 3 mps 756 mmHg 67%
    22:00 +28°C° 0 mm 3 mps 756 mmHg 68%
    23:00 +27°C° 0 mm 2 mps 756 mmHg 69%

    25 July, Thursday

    Time Temperature Precipitation Wind Pressure Humidity
    00:00 +27°C° 0 mm 1 mps 756 mmHg 71%
    01:00 +26°C° 0 mm 1 mps 756 mmHg 70%
    02:00 +26°C° 0 mm 1 mps 756 mmHg 69%
    03:00 +24°C° 0 mm 0 mps 756 mmHg 68%
    04:00 +25°C° 0 mm 0 mps 756 mmHg 64%
    05:00 +28°C° 0 mm 1 mps 756 mmHg 60%
    06:00 +29°C° 0 mm 1 mps 757 mmHg 57%
    07:00 +30°C° 0 mm 1 mps 757 mmHg 52%
    08:00 +32°C° 0 mm 2 mps 757 mmHg 47%
    09:00 +34°C° 0 mm 2 mps 757 mmHg 42%
    10:00 +35°C° 0 mm 3 mps 757 mmHg 41%
    11:00 +35°C° 0 mm 4 mps 756 mmHg 40%
    12:00 +36°C° 0 mm 4 mps 756 mmHg 39%
    13:00 +36°C° 0 mm 5 mps 756 mmHg 39%
    14:00 +35°C° 0 mm 5 mps 755 mmHg 40%
    15:00 +35°C° 0 mm 5 mps 755 mmHg 41%
    16:00 +34°C° 0 mm 5 mps 755 mmHg 45%
    17:00 +33°C° 0 mm 5 mps 755 mmHg 50%
    18:00 +32°C° 0 mm 5 mps 755 mmHg 54%
    19:00 +30°C° 0 mm 4 mps 755 mmHg 61%
    20:00 +29°C° 0 mm 3 mps 755 mmHg 67%
    21:00 +27°C° 0 mm 2 mps 756 mmHg 74%
    22:00 +27°C° 0 mm 2 mps 755 mmHg 75%
    23:00 +26°C° 0 mm 1 mps 755 mmHg 76%
    Show more